Middletown, OH

7:39 PM EDT on August 27, 2016 (GMT -0400)
Hook Field Municipal

Weather History for KMWO - March, 2014

Change the Weather History Date:

Sunday, March 16, 2014

  Actual Average (KDAY) Record (KDAY)
Temperature  
Mean Temperature 32 °F 40 °F  
Max Temperature 38 °F 50 °F 78 °F (1945)
Min Temperature 25 °F 31 °F 8 °F (1970)
Degree Days  
Heating Degree Days 32 25  
Month to date heating degree days 439  
Since 1 July heating degree days 4714  
Cooling Degree Days 0 0  
Month to date cooling degree days 0  
Year to date cooling degree days 0  
Moisture  
Dew Point 16 °F    
Average Humidity 53    
Maximum Humidity 70    
Minimum Humidity 35    
Precipitation  
Precipitation 0.00 in 0.11 in 1.37 in (1943)
Month to date precipitation 1.56  
Year to date precipitation 6.51  
Snow  
Snow 0.00 in 0.10 in 5.00 in (2004)
Month to date snowfall 2.2  
Since 1 July snowfall 21.5  
Snow Depth -    
Sea Level Pressure  
Sea Level Pressure 30.12 in    
Wind  
Wind Speed 14 mph (NE)    
Max Wind Speed 24 mph    
Max Gust Speed 30 mph    
Visibility 10 miles    
Events      
T = Trace of Precipitation, MM = Missing Value Source: NWS Daily Summary

Daily Weather History Graph

Daily Weather History Graph

Search for Another Location

Airport or City:

Trip Planner

Search our weather history database for the weather conditions in past years. The results will help you decide how hot, cold, wet, or windy it might be!

Date:

Astronomy

Mar. 16, 2014 Rise Set
Actual Time 7:47 AM EDT 7:45 PM EDT
Civil Twilight 7:20 AM EDT 8:12 PM EDT
Nautical Twilight 6:49 AM EDT 8:43 PM EDT
Astronomical Twilight 6:17 AM EDT 9:15 PM EDT
Moon 8:02 PM EDT (3/16) 7:30 AM EDT (3/16)
Length of Visible Light 12h 51m
Length of Day
11h 58m
Full, 100% of the Moon is Illuminated
Mar 16
Full
Mar 16
Full
Mar 23
Last Quarter
Mar 30
New
Apr 7
First Quarter

Hourly Weather History & Observations

Time (EDT) Temp. Windchill Dew Point Humidity Pressure Visibility Wind Dir Wind Speed Gust Speed Precip Events Conditions
12:15 AM 38.8 °F 31.2 °F 27.3 °F 63% 30.14 in 10.0 mi NNE 12.7 mph - N/A   Clear
12:35 AM 37.6 °F 31.0 °F 27.1 °F 66% 30.14 in 10.0 mi NNE 9.2 mph - N/A   Clear
12:55 AM 37.6 °F 31.0 °F 27.0 °F 66% 30.15 in 10.0 mi NNE 9.2 mph - N/A   Clear
1:15 AM 37.6 °F 31.0 °F 27.0 °F 66% 30.14 in 10.0 mi NE 9.2 mph - N/A   Clear
1:35 AM 37.6 °F 31.0 °F 26.8 °F 65% 30.14 in 10.0 mi NNE 9.2 mph - N/A   Clear
2:15 AM 35.1 °F 27.9 °F 24.4 °F 65% 30.15 in 10.0 mi NE 9.2 mph - N/A   Clear
2:35 AM 35.1 °F 28.6 °F 24.1 °F 64% 30.15 in 10.0 mi NE 8.1 mph - N/A   Clear
2:55 AM 35.1 °F 26.9 °F 23.7 °F 63% 30.14 in 10.0 mi NE 11.5 mph - N/A   Clear
3:15 AM 35.1 °F 27.9 °F 24.4 °F 65% 30.15 in 10.0 mi NE 9.2 mph - N/A   Clear
3:35 AM 35.1 °F 27.9 °F 24.3 °F 65% 30.15 in 10.0 mi NE 9.2 mph - N/A   Clear
3:55 AM 35.1 °F 26.4 °F 24.1 °F 64% 30.14 in 10.0 mi NNE 12.7 mph 16.1 mph N/A   Clear
4:15 AM 35.1 °F 27.9 °F 24.3 °F 65% 30.15 in 10.0 mi NE 9.2 mph - N/A   Clear
4:35 AM 34.2 °F 27.5 °F 23.4 °F 65% 30.16 in 10.0 mi ENE 8.1 mph - N/A   Clear
4:55 AM 32.5 °F 22.3 °F 22.3 °F 66% 30.15 in 10.0 mi NE 15.0 mph 19.6 mph N/A   Clear
5:15 AM 32.5 °F 22.7 °F 22.3 °F 66% 30.15 in 10.0 mi NE 13.8 mph 20.7 mph N/A   Clear
5:35 AM 32.5 °F 21.5 °F 21.2 °F 63% 30.16 in 10.0 mi ENE 17.3 mph 20.7 mph N/A   Clear
5:55 AM 32.5 °F 22.7 °F 20.3 °F 61% 30.16 in 10.0 mi ENE 13.8 mph 25.3 mph N/A   Clear
6:15 AM 32.5 °F 22.3 °F 21.2 °F 63% 30.16 in 10.0 mi NE 15.0 mph 18.4 mph N/A   Clear
6:35 AM 32.5 °F 23.2 °F 20.7 °F 62% 30.16 in 10.0 mi NE 12.7 mph 18.4 mph N/A   Clear
6:55 AM 32.5 °F 23.7 °F 21.2 °F 63% 30.15 in 10.0 mi NE 11.5 mph 18.4 mph N/A   Clear
7:15 AM 32.5 °F 22.3 °F 21.9 °F 65% 30.15 in 10.0 mi ENE 15.0 mph - N/A   Clear
7:35 AM 32.5 °F 20.5 °F 22.5 °F 66% 30.16 in 10.0 mi ENE 20.7 mph - N/A   Clear
8:15 AM 31.3 °F 20.7 °F 22.3 °F 69% 30.17 in 10.0 mi NE 15.0 mph 19.6 mph N/A   Mostly Cloudy
8:35 AM 32.5 °F 22.3 °F 23.7 °F 70% 30.17 in 10.0 mi NE 15.0 mph 20.7 mph N/A   Overcast
8:55 AM 30.2 °F 16.5 °F 19.8 °F 65% 30.17 in 10.0 mi NE 24.2 mph 29.9 mph N/A   Overcast
9:15 AM 30.2 °F 18.1 °F 19.8 °F 65% 30.16 in 10.0 mi ENE 18.4 mph 28.8 mph N/A   Overcast
9:35 AM 30.2 °F 18.1 °F 19.8 °F 65% 30.17 in 10.0 mi ENE 18.4 mph 27.6 mph N/A   Overcast
9:55 AM 30.2 °F 16.5 °F 18.5 °F 62% 30.19 in 10.0 mi NE 24.2 mph - N/A   Overcast
10:15 AM 30.2 °F 18.9 °F 18.7 °F 62% 30.20 in 10.0 mi ENE 16.1 mph 21.9 mph N/A   Mostly Cloudy
10:35 AM 30.2 °F 18.1 °F 18.3 °F 61% 30.20 in 10.0 mi ENE 18.4 mph 23.0 mph N/A   Mostly Cloudy
10:55 AM 30.2 °F 17.4 °F 17.1 °F 58% 30.21 in 10.0 mi ENE 20.7 mph 25.3 mph N/A   Overcast
11:15 AM 30.2 °F 18.5 °F 16.7 °F 57% 30.20 in 10.0 mi NE 17.3 mph - N/A   Overcast
11:35 AM 30.2 °F 17.4 °F 16.2 °F 56% 30.20 in 10.0 mi ENE 20.7 mph 26.5 mph N/A   Mostly Cloudy
11:55 AM 30.2 °F 18.1 °F 15.4 °F 54% 30.20 in 10.0 mi ENE 18.4 mph 26.5 mph N/A   Scattered Clouds
12:15 PM 32.5 °F 19.9 °F 15.8 °F 50% 30.19 in 10.0 mi NE 23.0 mph 28.8 mph N/A   Mostly Cloudy
12:35 PM 32.5 °F 20.5 °F 15.6 °F 50% 30.17 in 10.0 mi ENE 20.7 mph 27.6 mph N/A   Mostly Cloudy
12:55 PM 32.5 °F 20.5 °F 14.9 °F 48% 30.17 in 10.0 mi NE 20.7 mph 27.6 mph N/A   Scattered Clouds
1:15 PM 32.5 °F 20.5 °F 12.7 °F 44% 30.16 in 10.0 mi ENE 20.7 mph 27.6 mph N/A   Clear
1:35 PM 32.5 °F 20.2 °F 11.1 °F 41% 30.16 in 10.0 mi ENE 21.9 mph 25.3 mph N/A   Clear
1:55 PM 32.5 °F 19.9 °F 9.7 °F 39% 30.16 in 10.0 mi NE 23.0 mph 27.6 mph N/A   Clear
2:15 PM 32.5 °F 20.5 °F 9.7 °F 39% 30.15 in 10.0 mi NE 20.7 mph 26.5 mph N/A   Clear
2:55 PM 32.5 °F 20.8 °F 7.5 °F 35% 30.12 in 10.0 mi ENE 19.6 mph 29.9 mph N/A   Clear
3:15 PM 32.5 °F 20.5 °F 8.4 °F 36% 30.12 in 10.0 mi NE 20.7 mph 27.6 mph N/A   Scattered Clouds
3:35 PM 32.5 °F 21.2 °F 8.8 °F 37% 30.11 in 10.0 mi NE 18.4 mph 26.5 mph N/A   Overcast
3:55 PM 32.5 °F 22.3 °F 9.7 °F 39% 30.10 in 10.0 mi NE 15.0 mph 24.2 mph N/A   Overcast
4:15 PM 32.5 °F 20.5 °F 9.1 °F 38% 30.09 in 10.0 mi NE 20.7 mph 27.6 mph N/A   Overcast
4:35 PM 32.5 °F 20.2 °F 10.0 °F 39% 30.08 in 10.0 mi NE 21.9 mph 26.5 mph N/A   Overcast
4:55 PM 31.3 °F 19.9 °F 7.7 °F 37% 30.08 in 10.0 mi NE 17.3 mph 28.8 mph N/A   Overcast
5:15 PM 30.9 °F 19.1 °F 5.7 °F 35% 30.07 in 10.0 mi NE 18.4 mph 23.0 mph N/A   Overcast
5:35 PM 30.2 °F 18.9 °F 7.0 °F 38% 30.06 in 10.0 mi NE 16.1 mph 24.2 mph N/A   Overcast
5:55 PM 30.2 °F 18.9 °F 6.1 °F 36% 30.05 in 10.0 mi NE 16.1 mph 23.0 mph N/A   Overcast
6:15 PM 29.5 °F 19.3 °F 5.7 °F 37% 30.05 in 10.0 mi NE 12.7 mph - N/A   Overcast
6:35 PM 30.2 °F 19.3 °F 5.9 °F 36% 30.06 in 10.0 mi ENE 15.0 mph 25.3 mph N/A   Overcast
6:55 PM 29.1 °F 17.9 °F 6.3 °F 38% 30.05 in 10.0 mi NE 15.0 mph 20.7 mph N/A   Overcast
7:15 PM 28.8 °F 17.5 °F 5.7 °F 38% 30.05 in 10.0 mi NE 15.0 mph 24.2 mph N/A   Overcast
7:35 PM 28.4 °F 17.0 °F 5.9 °F 39% 30.06 in 10.0 mi NE 15.0 mph 19.6 mph N/A   Overcast
7:55 PM 28.0 °F 16.5 °F 6.1 °F 39% 30.05 in 10.0 mi NNE 15.0 mph - N/A   Overcast
8:15 PM 27.9 °F 17.3 °F 6.6 °F 41% 30.05 in 10.0 mi NNE 12.7 mph 20.7 mph N/A   Overcast
8:35 PM 27.9 °F 16.3 °F 7.5 °F 42% 30.05 in 10.0 mi NNE 15.0 mph 20.7 mph N/A   Overcast
8:55 PM 27.9 °F 16.8 °F 7.5 °F 42% 30.05 in 10.0 mi NE 13.8 mph 20.7 mph N/A   Overcast
9:15 PM 27.9 °F 16.8 °F 9.0 °F 45% 30.05 in 10.0 mi NNE 13.8 mph 21.9 mph N/A   Overcast
9:35 PM 27.9 °F 15.9 °F 10.0 °F 47% 30.05 in 10.0 mi NE 16.1 mph 23.0 mph N/A   Overcast
9:55 PM 27.9 °F 17.3 °F 10.6 °F 48% 30.06 in 10.0 mi NE 12.7 mph - N/A   Overcast
10:15 PM 27.9 °F 15.9 °F 11.8 °F 51% 30.05 in 10.0 mi NE 16.1 mph 21.9 mph N/A   Mostly Cloudy
10:35 PM 27.9 °F 15.9 °F 12.4 °F 52% 30.05 in 10.0 mi NE 16.1 mph 20.7 mph N/A   Mostly Cloudy
10:55 PM 27.9 °F 17.3 °F 12.4 °F 52% 30.05 in 10.0 mi NE 12.7 mph 19.6 mph N/A   Overcast
11:15 PM 27.9 °F 15.5 °F 12.2 °F 52% 30.05 in 10.0 mi NE 17.3 mph 20.7 mph N/A   Overcast
11:35 PM 27.9 °F 15.9 °F 12.4 °F 52% 30.05 in 10.0 mi NE 16.1 mph 21.9 mph N/A   Overcast
11:55 PM 25.5 °F 13.3 °F 10.6 °F 53% 30.06 in 10.0 mi NE 15.0 mph 18.4 mph N/A   Overcast